NOAA 16 DEB, 41668

Orbit data source: Space-Track

NOAA 16 DEB, 41668 is space debris in SSO originally from a launch on Thu, 21 Sep 2000 UTC launched from the Air Force Western Test Range (AFWTR). Debris objects in space refer to the collection of defunct objects orbiting the Earth. Examples of debris include non-operational satellites, rocket bodies, and fragments generated from explosions, collisions, or faulty payload assembly.

Loading next visibility...
Identifier
41668, 2000-055PH
Orbit
SSO
Country
Flag of USUS
Related business
Manufacturer
Unknown
Mission
Spacecraft
Bus & Motor
Unknown
Mass
Unknown
Launch date (UTC)
2000-09-21 (26 years ago)
Launch vehicle
Unknown
Launch site
Air Force Western Test Range (AFWTR)
Object type
Payload
Rocket body
Debris
Shape & HBR
Unknown shape, 0.1 m
Radar Cross Section
Small (<0.1 m²)

Expand to show TLE details & history
Last TLE update: 1 day ago

TLE from 1 day ago
0 NOAA 16 DEB
1 41668U 00055PH  26126.06813021  .00013880  00000-0  22612-2 0  9998
2 41668  98.9451 347.7006 0024916 192.0879 167.9730 14.70920949525727
Epoch: 2026-05-06T01:38Z
TLE epoch observation values (Epoch: 2026-05-06T01:38:06.450Z)
Latitude
0.00001°
Longitude
99.23979°
Altitude
678.258 km
Speed
7.508 km/s
True Right ascension
23h 10m 48s
True Declination
0° 00' 00"
Sunlit
Object was in daylight at epoch
Visualization orbit readout
Latitude
Unknown
Longitude
Unknown
Altitude
Unknown
Speed
Unknown
Apparent Right ascension
Unknown
Apparent Declination
Unknown
Sunlit
N/A
Visualization observer readout
Local Sidereal Time
14:52:42
Azimuth
Unknown
Elevation
Unknown
Doppler factor
Unknown
Orbital elements
Apogee altitude
672.757 km
Perigee altitude
637.708 km
Semi-major axis
7,033.369 km
Eccentricity
0.00249
Inclination
98.9451°
RAAN
347.7006°
Arg. of periapsis
192.0879°
True anomaly
168.03231°
Mean anomaly
167.973°
Eccentric anomaly
168.00267°
Mean motion
3.67958 °/min
Orbital period
97.84 mins
BSTAR
0.0022612
Loading maneuver chart data...
Computing Atmospheric mass density...
Loading historical data...
Loading historical data...
Loading historical data...
Loading historical data...
Loading historical data...
Loading historical data...
Loading historical data...

Documentation

Showing up to 5 results
|